sat.trackr.live / text

‹ back to catalog

STARLINK-31627

NORAD 59268 · 2024-050Q

PAYLOAD ACTIVE UNKNOWN

§ Identity

Operator
Country
US
Launch date
2024-03-19
Launch site
AFWTR
Launch vehicle
Mass (kg)
RCS (m²)

Purposes: comms

External: N2YO · Heavens-Above · Gunter

§ Orbital elements

Epoch: 2026-05-25T02:32:14.909568Z

Period
94.10 min
Inclination
53.1592°
Eccentricity
0.0001551
Mean motion
15.30214519 rev/d
Perigee alt
474.1 km
Apogee alt
476.2 km
Semi-major
6,853.3 km
B*
5.3639e-4
RAAN
186.3676°
Arg perigee
81.1686°
Mean anomaly
278.9490°
Rev number
12,224

§ Raw data

STARLINK-316271 59268U 24050Q   26145.10572812  .00015568  00000+0  53639-3 0  99982 59268  53.1592 186.3676 0001551  81.1686 278.9490 15.30214519122247

JSON: /api/v1/satellites/59268 · /tle

For live sub-satellite position, see the globe view (requires WebGL).

§ Visibility from observer

Set your observer location to see the next 7 days of passes ≥ 10°. The values pass through the URL so the page stays shareable.

No JS? Fill the form by hand. The geolocation button needs JavaScript.